CW7858 Murcia ES current weather conditions

sailwx.info

Wind from 337 at 6 knots gusting 11

Air temperature 12.8° C
Dewpoint 0.2° C

Last reported at 2018-Feb-21 11:02 UTC.
Time now 2018-Feb-21 11:47 UTC

Location: N 37°60' W 001°08'.
View on Google Maps.

See reports from other nearby stations

  
Tides and Currents Weather Stations Pressure Air Temp Water Temp Dewpoint Dewpoint Depression Visibility Wind Speed Wind Dir Waves Ship Positions
date/time (UTC)wind fromknots sea level pressurealtimeterstation pressurevisibilityair tempwater tempwave heightnotes
2018-Feb-21 11:02 337 6 gusting 11 12.8
2018-Feb-21 10:52 330 3 gusting 12 12.8
2018-Feb-21 10:42 311 5 gusting 13 12.8
2018-Feb-21 10:32 312 4 gusting 10 12.8
2018-Feb-21 10:22 318 2 gusting 10 12.2
2018-Feb-21 10:12 004 5 gusting 11 12.2
2018-Feb-21 10:02 298 5 gusting 11 12.2
2018-Feb-21 09:52 285 3 gusting 12 12.2
2018-Feb-21 09:42 319 6 gusting 11 12.2
2018-Feb-21 09:32 215 4 gusting 13 12.2
2018-Feb-21 09:22 289 3 gusting 10 11.7
2018-Feb-21 09:12 254 4 gusting 9 11.7
2018-Feb-21 09:02 291 1 gusting 5 11.1
2018-Feb-21 08:52 271 5 gusting 9 11.1
2018-Feb-21 08:42 330 2 gusting 5 11.1
2018-Feb-21 08:32 272 2 gusting 5 11.1
2018-Feb-21 08:22 223 1 gusting 6 10.6
2018-Feb-21 08:12 277 2 gusting 7 10.6
2018-Feb-21 08:02 261 0 gusting 4 10.6
2018-Feb-21 07:52 169 1 gusting 6 10.6
2018-Feb-21 07:42 217 1 gusting 5 10.6
2018-Feb-21 07:32 154 0 gusting 6 10.6
2018-Feb-21 07:22 236 1 gusting 9 10.6
2018-Feb-21 07:12 288 4 gusting 10 10.6
2018-Feb-21 07:02 282 2 gusting 5 10.0
2018-Feb-21 06:52 316 3 gusting 9 10.6
2018-Feb-21 06:42 241 4 gusting 8 10.6
2018-Feb-21 06:32 234 7 gusting 12 10.6
2018-Feb-21 06:22 292 6 gusting 11 10.6
2018-Feb-21 06:12 268 4 gusting 10 10.6
2018-Feb-21 06:02 261 6 gusting 13 10.6
2018-Feb-21 05:52 247 6 gusting 15 10.6
2018-Feb-21 05:42 220 3 gusting 11 10.6
2018-Feb-21 05:32 304 4 gusting 13 10.6
2018-Feb-21 05:22 280 5 gusting 13 11.1
2018-Feb-21 05:12 250 4 gusting 12 11.1
2018-Feb-21 05:02 320 6 gusting 13 11.1
2018-Feb-21 04:52 258 7 gusting 12 11.1
2018-Feb-21 04:42 277 4 gusting 11 11.1
2018-Feb-21 04:32 278 5 gusting 13 11.7
2018-Feb-21 04:22 319 6 gusting 13 11.7
2018-Feb-21 04:12 301 6 gusting 13 11.7
2018-Feb-21 04:02 278 6 gusting 11 11.7
2018-Feb-21 03:52 323 6 gusting 11 11.7
2018-Feb-21 03:42 302 5 gusting 12 11.7
2018-Feb-21 03:32 278 6 gusting 12 11.7
2018-Feb-21 03:22 265 5 gusting 10 12.2
2018-Feb-21 03:12 261 4 gusting 11 12.2
2018-Feb-21 03:02 278 5 gusting 10 12.2
2018-Feb-21 02:52 304 4 gusting 10 12.2
2018-Feb-21 02:42 254 5 gusting 13 12.8
2018-Feb-21 02:32 320 6 gusting 16 12.8
2018-Feb-21 02:22 343 8 gusting 14 12.8
2018-Feb-21 02:12 282 6 gusting 9 12.8
2018-Feb-21 02:02 315 6 gusting 16 12.8
2018-Feb-21 01:52 299 6 gusting 10 13.3
2018-Feb-21 01:42 278 5 gusting 12 13.3
2018-Feb-21 01:32 316 6 gusting 14 13.3
2018-Feb-21 01:22 311 10 gusting 13 13.9
2018-Feb-21 01:12 271 6 gusting 13 13.3
2018-Feb-21 01:02 328 3 gusting 6 13.9
2018-Feb-21 00:52 284 3 gusting 7 14.4
2018-Feb-21 00:42 268 3 gusting 12 14.4
2018-Feb-21 00:32 281 3 gusting 12 14.4
2018-Feb-21 00:22 304 4 gusting 11 14.4
2018-Feb-21 00:12 316 1 gusting 8 15.0
2018-Feb-21 00:02 295 3 gusting 5 15.0
2018-Feb-20 23:52 263 1 gusting 4 15.0
2018-Feb-20 23:42 280 1 gusting 8 15.0
2018-Feb-20 23:32 305 4 gusting 6 15.0
2018-Feb-20 23:22 253 2 gusting 5 15.0
2018-Feb-20 23:12 193 2 gusting 6 15.0
2018-Feb-20 23:02 274 4 gusting 6 15.6
2018-Feb-20 22:52 291 4 gusting 7 15.6
2018-Feb-20 22:42 282 2 gusting 8 16.1
2018-Feb-20 22:32 296 6 gusting 9 16.1
2018-Feb-20 22:22 281 2 gusting 13 16.7
2018-Feb-20 22:12 354 4 gusting 11 16.7
2018-Feb-20 22:02 236 2 gusting 12 16.7
2018-Feb-20 21:52 261 2 gusting 10 16.7
2018-Feb-20 21:42 335 6 gusting 9 16.7
2018-Feb-20 21:32 354 8 gusting 9 17.2
2018-Feb-20 21:22 281 3 gusting 8 17.2
2018-Feb-20 21:12 326 2 gusting 9 17.2
2018-Feb-20 21:02 313 6 gusting 9 17.2
2018-Feb-20 20:52 305 5 gusting 11 17.8
2018-Feb-20 20:42 299 6 gusting 11 17.8
2018-Feb-20 20:32 312 6 gusting 16 17.8
2018-Feb-20 20:22 282 6 gusting 12 18.3
2018-Feb-20 20:12 320 6 gusting 15 18.3
2018-Feb-20 20:02 287 7 gusting 15 18.3
2018-Feb-20 19:52 298 7 gusting 15 18.3
2018-Feb-20 19:42 291 7 gusting 15 18.3
2018-Feb-20 19:32 296 6 gusting 12 18.3
2018-Feb-20 19:22 301 6 gusting 14 18.3
2018-Feb-20 19:12 319 6 gusting 11 18.9
2018-Feb-20 19:02 336 5 gusting 16 18.9
2018-Feb-20 18:52 277 6 gusting 14 18.9
2018-Feb-20 18:42 288 8 gusting 14 18.9
2018-Feb-20 18:32 313 9 gusting 16 19.4
2018-Feb-20 18:22 326 6 gusting 12 19.4
2018-Feb-20 18:12 322 6 gusting 11 19.4
2018-Feb-20 18:02 315 4 gusting 13 20.0
2018-Feb-20 17:52 315 6 gusting 17 20.0
2018-Feb-20 17:42 337 6 gusting 13 20.0
2018-Feb-20 17:32 333 5 gusting 10 20.6
2018-Feb-20 17:22 299 4 gusting 11 20.6
2018-Feb-20 17:12 336 7 gusting 14 20.6
2018-Feb-20 17:02 323 6 gusting 14 20.6
2018-Feb-20 16:52 315 5 gusting 12 20.6
2018-Feb-20 16:42 287 3 gusting 11 20.6
2018-Feb-20 16:32 282 6 gusting 10 20.6
2018-Feb-20 16:22 268 2 gusting 11 20.6
2018-Feb-20 16:12 291 3 gusting 13 20.6
2018-Feb-20 16:02 270 6 gusting 14 20.6
2018-Feb-20 15:52 285 6 gusting 9 20.6
2018-Feb-20 15:42 254 5 gusting 11 20.6
2018-Feb-20 15:32 284 1 gusting 10 21.1
2018-Feb-20 15:22 294 3 gusting 11 21.1
2018-Feb-20 15:12 195 5 gusting 14 20.6
2018-Feb-20 15:02 306 4 gusting 9 20.6
2018-Feb-20 14:52 299 5 gusting 8 20.6
2018-Feb-20 14:42 332 2 gusting 13 20.6
2018-Feb-20 14:32 003 6 gusting 10 20.6
2018-Feb-20 14:22 285 3 gusting 10 20.6
2018-Feb-20 14:12 305 6 gusting 13 20.0
2018-Feb-20 14:02 055 2 gusting 11 20.0
2018-Feb-20 13:52 309 2 gusting 11 20.0
2018-Feb-20 13:42 332 6 gusting 14 20.0
2018-Feb-20 13:32 257 6 gusting 15 19.4
2018-Feb-20 13:22 360 5 gusting 12 19.4
2018-Feb-20 13:12 299 7 gusting 15 19.4
2018-Feb-20 13:02 010 2 gusting 10 18.9
2018-Feb-20 12:52 326 6 gusting 14 18.9
2018-Feb-20 12:42 247 6 gusting 13 18.9
2018-Feb-20 12:32 353 4 gusting 12 18.9
2018-Feb-20 12:22 052 3 gusting 12 18.9
2018-Feb-20 12:12 032 6 gusting 12 18.9
2018-Feb-20 12:02 333 8 gusting 13 18.9
2018-Feb-20 11:52 306 6 gusting 15 18.9
2018-Feb-20 11:42 056 7 gusting 10 18.9
2018-Feb-20 11:32 346 3 gusting 8 18.9
2018-Feb-20 11:22 315 3 gusting 12 18.3
2018-Feb-20 11:12 340 7 gusting 14 17.8
2018-Feb-20 11:02 349 4 gusting 13 17.8
2018-Feb-20 10:52 330 6 gusting 13 17.2
2018-Feb-20 10:42 329 8 gusting 14 17.2
2018-Feb-20 10:32 267 4 gusting 11 16.7
2018-Feb-20 10:22 299 7 gusting 13 16.7
2018-Feb-20 10:12 299 3 gusting 14 16.1
2018-Feb-20 10:02 222 5 gusting 15 16.1
2018-Feb-20 09:52 285 6 gusting 12 15.6
2018-Feb-20 09:42 295 6 gusting 12 15.6
2018-Feb-20 09:32 289 6 gusting 13 15.0
2018-Feb-20 09:22 308 9 gusting 15 15.0
2018-Feb-20 09:12 296 6 gusting 13 14.4
2018-Feb-20 09:02 274 6 gusting 14 14.4
2018-Feb-20 08:52 261 5 gusting 11 13.9
2018-Feb-20 08:42 280 5 gusting 8 12.8
2018-Feb-20 08:32 254 5 gusting 6 12.2
2018-Feb-20 08:22 216 0 gusting 4 11.7
2018-Feb-20 08:12 192 0 gusting 3 10.6
2018-Feb-20 08:02 199 0 gusting 2 10.0
2018-Feb-20 07:53 202 0 gusting 2 9.4
2018-Feb-20 07:42 212 0 gusting 3 8.9
2018-Feb-20 07:32 205 1 gusting 2 8.9
2018-Feb-20 07:22 186 0 gusting 4 8.3
2018-Feb-20 07:12 210 7.8
2018-Feb-20 07:02 244 1 gusting 6 7.8
2018-Feb-20 06:52 263 2 gusting 6 7.8
2018-Feb-20 06:42 212 3 gusting 6 7.8
2018-Feb-20 06:32 253 2 gusting 5 7.8
2018-Feb-20 06:22 169 1 gusting 3 7.8
2018-Feb-20 06:12 192 1 gusting 3 7.8
2018-Feb-20 06:02 176 0 gusting 5 7.8
2018-Feb-20 05:52 226 0 gusting 2 7.8
2018-Feb-20 05:42 192 0 gusting 3 7.8
2018-Feb-20 05:32 224 0 gusting 5 7.8
2018-Feb-20 05:22 210 0 gusting 2 7.8
2018-Feb-20 05:12 196 0 gusting 2 7.8
2018-Feb-20 05:02 236 1 gusting 3 7.8
2018-Feb-20 04:52 243 1 gusting 3 8.3
2018-Feb-20 04:42 240 1 gusting 4 8.3
2018-Feb-20 04:32 233 1 gusting 5 7.8
2018-Feb-20 04:22 234 1 gusting 5 7.8
2018-Feb-20 04:12 205 1 gusting 4 8.3
2018-Feb-20 04:02 192 1 gusting 2 8.3
2018-Feb-20 03:52 219 0 gusting 2 8.3
2018-Feb-20 03:42 202 0 gusting 1 8.3
2018-Feb-20 03:32 222 0 gusting 2 8.3
2018-Feb-20 03:22 219 0 gusting 2 8.3
2018-Feb-20 03:12 233 2 gusting 5 8.3
2018-Feb-20 03:02 263 2 gusting 6 8.9
2018-Feb-20 02:52 205 2 gusting 5 8.9
2018-Feb-20 02:42 254 2 gusting 4 8.9
2018-Feb-20 02:32 253 2 gusting 3 8.9
2018-Feb-20 02:22 229 1 gusting 4 8.9
2018-Feb-20 02:12 219 1 gusting 4 9.4
2018-Feb-20 02:02 233 0 gusting 2 9.4
2018-Feb-20 01:52 227 0 gusting 2 9.4
2018-Feb-20 01:42 272 0 gusting 4 9.4
2018-Feb-20 01:32 219 1 gusting 2 9.4
2018-Feb-20 01:22 185 0 gusting 3 9.4
2018-Feb-20 01:12 162 1 gusting 4 10.0
2018-Feb-20 01:02 210 0 gusting 3 10.0
2018-Feb-20 00:52 193 0 gusting 2 10.0
2018-Feb-20 00:42 234 1 gusting 2 10.6
2018-Feb-20 00:32 274 10.6
2018-Feb-20 00:22 243 0 gusting 2 10.0
2018-Feb-20 00:12 254 0 gusting 4 10.6
2018-Feb-20 00:02 195 2 gusting 5 10.6
2018-Feb-19 23:52 241 1 gusting 5 10.6
2018-Feb-19 23:42 272 0 gusting 5 10.6
2018-Feb-19 23:32 195 0 gusting 3 10.6
2018-Feb-19 23:22 239 0 gusting 2 11.1
2018-Feb-19 23:12 217 11.1
2018-Feb-19 23:02 219 1 gusting 2 11.7
2018-Feb-19 22:52 217 0 gusting 2 11.7
2018-Feb-19 22:42 193 11.7
2018-Feb-19 22:32 229 0 gusting 1 12.2
2018-Feb-19 22:22 227 0 gusting 1 12.2
2018-Feb-19 22:12 055 12.2
2018-Feb-19 22:02 011 0 gusting 1 12.8
2018-Feb-19 21:52 357 12.8
2018-Feb-19 21:42 035 0 gusting 2 12.8
2018-Feb-19 21:32 042 1 gusting 1 12.8
2018-Feb-19 21:22 360 0 gusting 2 12.8
2018-Feb-19 21:12 038 1 gusting 2 12.8
2018-Feb-19 21:02 001 0 gusting 2 13.3
2018-Feb-19 20:52 055 1 gusting 4 13.3
2018-Feb-19 20:42 025 0 gusting 2 13.3
2018-Feb-19 20:32 011 0 gusting 2 13.3
2018-Feb-19 20:22 352 0 gusting 1 13.3
2018-Feb-19 20:12 360 0 gusting 2 13.3
2018-Feb-19 20:02 311 0 gusting 4 13.9
2018-Feb-19 19:52 342 1 gusting 3 13.9
2018-Feb-19 19:42 350 0 gusting 3 13.9
2018-Feb-19 19:32 360 0 gusting 1 13.9
2018-Feb-19 19:22 313 0 gusting 2 13.9
2018-Feb-19 19:12 254 1 gusting 4 14.4
2018-Feb-19 19:02 247 1 gusting 3 14.4
2018-Feb-19 18:52 275 0 gusting 2 15.0
2018-Feb-19 18:42 112 15.0
2018-Feb-19 18:32 112 0 gusting 1 15.0
2018-Feb-19 18:22 284 15.0
2018-Feb-19 18:12 164 1 gusting 5 15.6
2018-Feb-19 18:02 280 0 gusting 4 15.6
2018-Feb-19 17:52 236 2 gusting 6 15.6
2018-Feb-19 17:42 150 2 gusting 6 15.6
2018-Feb-19 17:32 171 3 gusting 8 16.1
2018-Feb-19 17:22 083 4 gusting 8 16.7
2018-Feb-19 17:12 123 1 gusting 10 16.7
2018-Feb-19 17:02 079 3 gusting 8 16.7
2018-Feb-19 16:52 089 2 gusting 9 17.2
2018-Feb-19 16:42 061 1 gusting 9 17.8
2018-Feb-19 16:32 140 4 gusting 9 17.8
2018-Feb-19 16:22 145 5 gusting 6 18.3
2018-Feb-19 16:12 360 0 gusting 6 19.4
2018-Feb-19 16:02 141 0 gusting 5 20.0
2018-Feb-19 15:52 191 0 gusting 5 20.0
2018-Feb-19 15:42 184 0 gusting 2 20.0
2018-Feb-19 15:32 270 20.6
2018-Feb-19 15:22 167 20.6
2018-Feb-19 15:12 294 0 gusting 4 20.0
2018-Feb-19 15:02 138 1 gusting 2 19.4
2018-Feb-19 14:52 119 1 gusting 2 19.4
2018-Feb-19 14:42 044 18.9
2018-Feb-19 14:32 316 0 gusting 4 18.9
2018-Feb-19 14:22 248 3 gusting 5 18.9
2018-Feb-19 14:12 254 0 gusting 4 19.4
2018-Feb-19 14:02 278 0 gusting 2 18.3
2018-Feb-19 13:52 066 0 gusting 4 17.8
2018-Feb-19 13:42 336 0 gusting 3 18.3
2018-Feb-19 13:32 078 0 gusting 2 17.8
2018-Feb-19 13:22 360 0 gusting 2 18.9
2018-Feb-19 13:12 188 0 gusting 3 18.3
2018-Feb-19 13:02 209 2 gusting 5 17.8
2018-Feb-19 12:52 226 1 gusting 5 17.8
2018-Feb-19 12:42 011 0 gusting 2 17.2
2018-Feb-19 12:32 117 0 gusting 2 16.7
2018-Feb-19 12:22 342 0 gusting 4 16.7
2018-Feb-19 12:12 110 0 gusting 4 16.7
2018-Feb-19 12:02 360 0 gusting 6 16.7
2018-Feb-19 11:52 239 16.1
2018-Feb-19 11:42 021 1 gusting 4 16.1
2018-Feb-19 11:32 309 1 gusting 5 16.1